Tracking 19625 objects as of 26-May-2019
HD Live streaming from Space Station
objects crossing your sky now
Watch Starlink satellites crossing your sky!

ROBUSTA 1B

Track ROBUSTA 1B now!
10-day predictions
ROBUSTA 1B is classified as:


NORAD ID: 42792
Int'l Code: 2017-036AD
Perigee: 497.4 km
Apogee: 511.0 km
Inclination: 97.4 °
Period: 94.6 minutes
Semi major axis: 6875 km
RCS: Unknown
Launch date: June 23, 2017
Source: France (FR)
Launch site: SRIHARIKOTA (SRI)

Uplink (MHz):
Downlink (MHz): 437.325
Beacon (MHz): 437.325
Mode: 1200bps AFSK CW
Call sign: FX6FR
Status: Active

aabbcc
Your satellite tracking list
Your tracking list is empty




NASA's NSSDC Master Catalog

Two Line Element Set (TLE):
1 42792U 17036AD  19145.73003425  .00000738  00000-0  34409-4 0  9997
2 42792  97.3533 204.4505 0009851 321.9332  38.1208 15.22908588106649
Source of the keplerian elements: AMSAT